Mammoth, USA 16 day weather forecast

Slopes altitude range 2290 m - 3075m

Number of lifts: 28 Pistes: -1km

In some cases the lift and piste totals shown are for the ski domain (e.g. Three Valleys) rather than individual resort (e.g. Courchevel)

Overview

The 16 day weather forecast is fully updated 4 times every day.

    • Sun 23 SEP 2018
    • Sun 23
    • 8C 9C
    • Mon 24 SEP 2018
    • Mon 24
    • 8C 9C
    • Tue 25 SEP 2018
    • Tue 25
    • 9C 10C
    • Wed 26 SEP 2018
    • Wed 26
    • 11C 12C
    • Thu 27 SEP 2018
    • Thu 27
    • 12C 14C
    • Fri 28 SEP 2018
    • Fri 28
    • 12C 13C
    • Sat 29 SEP 2018
    • Sat 29
    • 10C 11C
    • Sun 30 SEP 2018
    • Sun 30
    • 7C 10C
    • Mon 01 OCT 2018
    • Mon 01
    • 5C 8C
    • Tue 02 OCT 2018
    • Tue 02
    • 8C 11C
    • Wed 03 OCT 2018
    • Wed 03
    • 5C 15C
    • Thu 04 OCT 2018
    • Thu 04
    • 6C 15C
    • Fri 05 OCT 2018
    • Fri 05
    • 5C 15C
    • Sat 06 OCT 2018
    • Sat 06
    • 5C 16C
    • Sun 07 OCT 2018
    • Sun 07
    • 6C 16C
    • Mon 08 OCT 2018
    • Mon 08
    • 5C 14C

Date:

Time Type 0°C level Temp Chill Snow Cloud Speed Gust Dir Press
3:00 4280m 10°C 10_6 0cm 0% 6mph 7mph 1014mB
6:00 4290m 9°C 9_7 0cm 0% 7mph 7mph 1015mB
9:00 4193m 9°C 9_7 0cm 17% 7mph 8mph 1015mB
12:00 4131m 9°C 9_7 0cm 47% 7mph 8mph 1015mB
15:00 4062m 11°C 11_6 0cm 99% 6mph 6mph 1015mB
18:00 4010m 19°C 19_7 0cm 64% 7mph 9mph 1013mB
21:00 4053m 19°C 19_10 0cm 0% 10mph 10mph 1011mB
0:00 4131m 18°C 18_6 0cm 0% 6mph 6mph 1010mB
3:00 4293m 9°C 9_6 0cm 0% 6mph 7mph 1011mB
6:00 4350m 8°C 8_7 0cm 0% 7mph 8mph 1013mB
9:00 4346m 8°C 8_7 0cm 0% 7mph 7mph 1013mB
12:00 4358m 9°C 9_7 0cm 0% 7mph 8mph 1013mB
15:00 4437m 11°C 11_6 0cm 0% 6mph 6mph 1014mB
18:00 4431m 20°C 20_5 0cm 0% 5mph 4mph 1013mB
21:00 4415m 20°C 20_8 0cm 0% 8mph 7mph 1011mB
0:00 4438m 18°C 18_6 0cm 0% 6mph 6mph 1010mB
3:00 4468m 9°C 9_6 0cm 0% 6mph 7mph 1012mB
6:00 4550m 9°C 9_7 0cm 0% 7mph 8mph 1014mB
9:00 4504m 9°C 9_8 0cm 0% 8mph 8mph 1014mB
12:00 4542m 10°C 10_8 0cm 0% 8mph 8mph 1015mB
15:00 4554m 12°C 12_8 0cm 0% 8mph 10mph 1016mB
18:00 4573m 23°C 23_4 0cm 0% 4mph 3mph 1016mB
21:00 4540m 22°C 22_7 0cm 0% 7mph 5mph 1014mB
0:00 4716m 21°C 21_7 0cm 0% 7mph 6mph 1013mB
3:00 4936m 12°C 12_6 0cm 0% 6mph 7mph 1016mB
6:00 5023m 11°C 11_7 0cm 0% 7mph 8mph 1018mB
9:00 5040m 11°C 11_8 0cm 0% 8mph 9mph 1018mB
12:00 5061m 12°C 12_8 0cm 0% 8mph 8mph 1018mB
15:00 5144m 13°C 13_7 0cm 0% 7mph 7mph 1019mB
18:00 5232m 23°C 23_5 0cm 0% 5mph 3mph 1018mB
21:00 5148m 23°C 23_7 0cm 0% 7mph 6mph 1015mB
0:00 5137m 22°C 22_6 0cm 34% 6mph 7mph 1014mB
3:00 5263m 13°C 13_6 0cm 99% 6mph 7mph 1015mB
6:00 5321m 13°C 13_7 0cm 99% 7mph 8mph 1016mB
9:00 5218m 13°C 13_7 0cm 100% 7mph 8mph 1015mB
12:00 5176m 14°C 14_7 0cm 99% 7mph 8mph 1015mB
15:00 5149m 14°C 14_6 0cm 99% 6mph 7mph 1016mB
18:00 5104m 24°C 24_6 0cm 99% 6mph 4mph 1014mB
21:00 5013m 23°C 23_7 0cm 100% 7mph 6mph 1012mB
0:00 4992m 22°C 22_5 0cm 100% 5mph 5mph 1010mB
3:00 5035m 14°C 14_6 0cm 100% 6mph 7mph 1012mB
6:00 5051m 13°C 13_6 0cm 100% 6mph 7mph 1013mB
9:00 4948m 12°C 12_7 0cm 100% 7mph 7mph 1013mB
12:00 4891m 13°C 13_7 0cm 99% 7mph 8mph 1013mB
15:00 4853m 13°C 13_6 0cm 99% 6mph 7mph 1014mB
18:00 4872m 22°C 22_7 0cm 99% 7mph 9mph 1013mB
21:00 4791m 23°C 23_9 0cm 99% 9mph 11mph 1011mB
0:00 4690m 21°C 21_7 0cm 99% 7mph 8mph 1010mB
3:00 4663m 12°C 12_6 0cm 98% 6mph 6mph 1012mB
6:00 4747m 11°C 11_7 0cm 72% 7mph 7mph 1014mB
9:00 4634m 11°C 11_7 0cm 99% 7mph 7mph 1014mB
12:00 4574m 11°C 11_7 0cm 67% 7mph 7mph 1014mB
15:00 4456m 12°C 12_6 0cm 0% 6mph 7mph 1014mB
18:00 4257m 20°C 20_11 0cm 16% 11mph 18mph 1013mB
21:00 4148m 20°C 20_13 0cm 52% 13mph 20mph 1011mB
0:00 4003m 17°C 17_10 0cm 27% 10mph 16mph 1009mB
3:00 4092m 9°C 9_5 0cm 7% 5mph 7mph 1012mB
6:00 4076m 8°C 8_6 0cm 4% 6mph 7mph 1013mB
9:00 4457m 9°C 9_8 0cm 0% 8mph 9mph 1012mB
12:00 4135m 10°C 10_8 0cm 0% 8mph 9mph 1013mB
15:00 3769m 9°C 9_8 0cm 0% 8mph 10mph 1014mB
18:00 3632m 15°C 15_14 0cm 0% 14mph 23mph 1013mB
21:00 3959m 15°C 15_12 0cm 0% 12mph 17mph 1012mB
0:00 4283m 15°C 15_7 0cm 0% 7mph 8mph 1010mB
3:00 4376m 11°C 11_4 0cm 0% 4mph 5mph 1013mB
6:00 4416m 8°C 8_1 0cm 0% 1mph 2mph 1014mB
9:00 4498m 6°C 6_2 0cm 0% 2mph 2mph 1014mB
12:00 4485m 8°C 8_4 0cm 19% 4mph 5mph 1013mB
15:00 4487m 10°C 10_7 0cm 1% 7mph 8mph 1014mB
18:00 4459m 18°C 18_9 0cm 15% 9mph 13mph 1012mB
21:00 4394m 18°C 18_15 0cm 29% 15mph 17mph 1010mB
0:00 4467m 18°C 18_14 0cm 53% 14mph 17mph 1008mB
3:00 4400m 12°C 12_9 0cm 100% 9mph 11mph 1010mB
6:00 4297m 11°C 11_9 0cm 100% 9mph 11mph 1012mB
9:00 4273m 10°C 10_9 0cm 98% 9mph 10mph 1012mB
12:00 4174m 11°C 11_8 0cm 94% 8mph 9mph 1012mB
15:00 4146m 10°C 10_8 0cm 73% 8mph 9mph 1013mB
18:00 4145m 17°C 17_5 0cm 44% 5mph 10mph 1012mB
Morning 0.322917mm 0 4211m 9°C 9_6 0cm 0% 6mph 8mph 1013mB
Afternoon 0.0572917mm 0 4181m 15°C 15_3 0cm 0% 3mph 5mph 1015mB
Morning 0.0260417mm 0 4202m 9°C 9_9 0cm 0% 9mph 10mph 1018mB
Afternoon 0.3125mm 0 4033m 15°C 15_3 0cm 0% 3mph 4mph 1020mB
Morning 0.572917mm 0 4070m 9°C 9_4 0cm 0% 4mph 5mph 1021mB
Afternoon 0.28125mm 0 4238m 15°C 15_5 0cm 0% 5mph 4mph 1019mB
Morning 0.0208333mm 0 4397m 10°C 10_4 0cm 0% 4mph 6mph 1016mB
Afternoon 0.00520833mm 0 4370m 16°C 16_3 0cm 0% 3mph 5mph 1014mB
Morning 0.0520833mm 0 4292m 10°C 10_5 0cm 0% 5mph 6mph 1012mB
Afternoon 0.078125mm 0 4319m 16°C 16_4 0cm 59% 4mph 5mph 1012mB
Morning 0.015625mm 0 4162m 9°C 9_7 0cm 6% 7mph 8mph 1012mB
Afternoon 0.0208333mm 0 3942m 14°C 14_6 0cm 0% 6mph 8mph 1011mB

16 day outlook at a glance

Forecast issued: 23/09/2018 05:11:35

Chat

Your comments and questions. In a resort? Let us know what it's like!


Characters left 250

For terms and conditions see Readers Comments on the Cookie and privacy policy page.